Regional Weather Roundup
Issued by NWS Sterling, VA

Home | Current Version | Previous Version | Text Only | Print | Product List | Glossary On
Versions: 1 2 3 4 5 6 7 8 9 10 11 12 13 14 15 16 17 18 19 20 21 22 23 24 25 26 27 28 29 30 31 32 33 34 35 36 37 38 39 40 41 42 43 44 45 46 47 48 49 50
000
ASUS41 KLWX 102110
RWRLWX

REGIONAL WEATHER ROUNDUP
NATIONAL WEATHER SERVICE BALTIMORE MD/WASHINGTON DC
400 PM EST WED FEB 10 2016

Note: "FAIR" indicates few or no clouds below 12,000 feet
with no significant weather and/or obstructions to visibility.
 TC=TEMPERATURE CELSIUS

 * =Non NWS site. Station does not report precipitation (e.g. rain,
    snow, etc.), thunder, or fog.

DCZ001-MDZ009-015-VAZ040>042-051-053>054-102200-
WASHINGTON METRO

CITY           SKY/WX    TMP DP  RH WIND       PRES   REMARKS
WASHINGTON NAT PTSUNNY   36  15  42 NW13      29.81R WCI  27
DULLES         CLOUDY    33  13  43 NW14      29.79R WCI  23
ANDREWS AFB    CLOUDY    35  15  44 NW12      29.78R WCI  27
FT BELVOIR     CLOUDY    36  14  40 NW10      29.79R WCI  29
QUANTICO       PTSUNNY   39  16  39 N7        29.80S
COLLEGE PARK*  FAIR      36  14  41 NW7       29.79S
LEESBURG*      CLOUDY    32  19  59 NW18      29.81R WCI  20
MANASSAS*      CLOUDY    36  18  48 N9        29.79R WCI  29
GAITHERSBURG*  MOSUNNY   30  12  47 W15       29.82R WCI  19

$$

MDZ006>007-011-014-102200-
BALTIMORE METRO

CITY           SKY/WX    TMP DP  RH WIND       PRES   REMARKS
BWI AIRPORT    PTSUNNY   33  14  45 W14G25    29.79R WCI  23
MD SCIENCE CTR   N/A     34  13  41 MISG      29.79R
MARTIN STATE   PTSUNNY   36  19  51 W15G23    29.81R WCI  26
ANNAPOLIS      MOSUNNY   36  17  46 NW9       29.79R WCI  29
FORT MEADE*    MOSUNNY   34  16  47 NW12G21   29.82R WCI  25

$$

MDZ012-015-019>023-102200-
MARYLAND EASTERN SHORE

CITY           SKY/WX    TMP DP  RH WIND       PRES   REMARKS
OCEAN CITY     MOSUNNY   37  20  50 NW9       29.78R
SALISBURY      MOSUNNY   37  20  50 W16G22    29.78R WCI  28
BAY BRIDGE AP*   N/A     36  16  44 W10G17    29.80R WCI  28
CAMBRIDGE*     PTSUNNY   36  19  51 W5        29.78R
EASTON*        MOSUNNY   36  18  48 NW12      29.82R WCI  27

$$

MDZ017>025-102200-
SOUTHERN MARYLAND

CITY           SKY/WX    TMP DP  RH WIND       PRES   REMARKS
PATUXENT RIVER PTSUNNY   38  17  42 W13       29.78R
ST INIGOES     MOSUNNY   40  21  46 W9        29.78S
LEONARDTOWN*   CLOUDY    37  19  48 W8        29.80R

$$

MDZ003>005-102200-
NORTH CENTRAL MARYLAND

CITY           SKY/WX    TMP DP  RH WIND       PRES   REMARKS
FREDERICK*     PTSUNNY   32  18  55 W15       29.83R WCI  22
HAGERSTOWN APT CLOUDY    28  10  46 W16       29.79R WCI  16
WESTMINSTER*   CLOUDY    30  21  69 W10G16    29.76R WCI  21

$$

MDZ501>502-102200-
WESTERN MARYLAND

CITY           SKY/WX    TMP DP  RH WIND       PRES   REMARKS
OAKLAND*       FOG       10   9  92 W12G21    29.69R VSB 3/4 WCI  -4
CUMBERLAND*    CLOUDY    27  10  50 SW8       29.89R WCI  18

$$

VAZ025>031-102200-
SHENANDOAH VALLEY

CITY           SKY/WX    TMP DP  RH WIND       PRES   REMARKS
WINCHESTER*    CLOUDY    28  14  54 NW20G28   29.81R WCI  15
FRONT ROYAL*   CLOUDY    28  12  50 W12G20    29.81R WCI  18
LURAY*         CLOUDY    28   9  43 W10G21    29.81R WCI  19
NEW MARKET*    CLOUDY    27   5  39 W9G16     29.82R WCI  18
STAUNTON*      PTSUNNY   32   8  35 W10       29.83R WCI  24
WAYNESBORO*    MOCLDY    26   3  37 W10G18    29.80R WCI  15

$$

WVZ021-048>050-054>055-102200-
EASTERN WEST VIRGINIA PANHANDLE

CITY           SKY/WX    TMP DP  RH WIND       PRES   REMARKS
MARTINSBURG    PTSUNNY   29   8  41 W17G26    29.82R WCI  17
PETERSBURG*    CLOUDY    23   8  52 CALM      29.87S

$$

VAZ036>039-050-102200-
CENTRAL FOOTHILLS

CITY           SKY/WX    TMP DP  RH WIND       PRES   REMARKS
CHARLOTTESVILL CLOUDY    33   7  33 W10G21    29.80R WCI  25
CULPEPER*      CLOUDY    35  14  41 NW5       29.80R
ORANGE*        CLOUDY    36  14  41 SW12G18   29.81R WCI  27
GORDONSVILLE*  CLOUDY    34  11  38 W6        29.80R
WARRENTON*     CLOUDY    36  20  52 W7        29.79R

$$

VAZ055>057-102200-
NORTH AND CENTRAL PIEDMONT

CITY           SKY/WX    TMP DP  RH WIND       PRES   REMARKS
FREDERICKSBRG* CLOUDY    38  16  41 W10       29.78S
STAFFORD*      CLOUDY    37  15  40 NW6       29.82S

$$

NCZ024-NYZ072-PAZ021-071-VAZ022-071-102200-
OTHER REGIONAL OBSERVATIONS

CITY           SKY/WX    TMP DP  RH WIND       PRES   REMARKS
NEW YORK CITY  CLOUDY    38  18  44 MISG      29.66R
PHILADELPHIA   CLOUDY    35  16  45 W18G28    29.75R WCI  24
PITTSBURGH     LGT SNOW  20  13  74 SW10G20   29.81R WCI   9
ROANOKE        PTSUNNY   26   6  42 NW17      29.91R WCI  13
RICHMOND       PTSUNNY   39  14  36 W12G21    29.80R
RALEIGH        PTSUNNY   37  13  37 W8        29.88R

$$

ANZ530>537-102200-
MARINE OBSERVATIONS

STATION/POSITION TIME  TEMP    WIND        PRES
                       AIR SEA DIR/SP/G
                 (UTC) (F)     (DEG/KT/KT) (MB)
THOMAS PT LIGHT  2100   35 39  310/ 14/ 16 1009.3R
BALT KEY BRIDGE  2000   34     270/ 15/ 19 1008.3R
COVE POINT       2000   37     270/ 14/ 16 1008.8R
LEWISETTA        2000   38 41  300/  9/ 11 1008.2S
SOLOMONS ISLAND  2000   38 41  250/ 12/ 15   N/A
PINEY POINT      2000          340/  7/  9   N/A

$$




USA.gov is the U.S. government's official web portal to all federal, state and local government web resources and services.